User: anonymous   Login
Location: Albany
(35.0000°S, 118.0000°E)
Time: 13:03:18
(UTC-04:00)
Language:

SJ-6B - Orbit

View from above orbital plane
View from above orbital plane
View from above satellite
View from above satellite

Ground track
Ground track

The orbit data is extracted from the following two-line orbital elements,

1 28415U 04035C   16242.67614192  .00001193  00000-0  84229-4 0  9996
2 28415  97.7745 263.9098 0053521  31.6135 328.8288 15.05828107654701
Epoch (UTC): 29 August 2016 16:13:38
Eccentricity: 0.0053521
inclination: 97.7745°
perigee height: 512 km
apogee height: 586 km
right ascension of ascending node: 263.9098°
argument of perigee: 31.6135°
revolutions per day: 15.05828107
mean anomaly at epoch: 328.8288°
orbit number at epoch: 65470

The dashed part of the orbit path shows where the satellite is in the earth's shadow,  

DLR